Time,TemperatureF,DewpointF,PressureIn,WindDirection,WindDirectionDegrees,WindSpeedMPH,WindSpeedGustMPH,Humidity,HourlyPrecipIn,Conditions,Clouds,dailyrainin,SoftwareType,DateUTC
2013-06-29 00:01:00,71.0,63.0,29.47,ENE,64,0.0,-999.0,77,-99.99,,,-99.99,,2013-06-29 05:01:00,
2013-06-29 00:11:00,71.0,63.0,29.47,ENE,64,0.0,-999.0,77,-99.99,,,-99.99,,2013-06-29 05:11:00,
2013-06-29 00:21:00,70.0,63.0,29.47,ENE,64,0.0,-999.0,78,-99.99,,,-99.99,,2013-06-29 05:21:00,
2013-06-29 00:31:00,70.0,63.0,29.47,ENE,64,0.0,-999.0,79,-99.99,,,-99.99,,2013-06-29 05:31:00,
2013-06-29 00:41:00,69.0,63.0,29.46,East,94,0.0,-999.0,82,-99.99,,,-99.99,,2013-06-29 05:41:00,
2013-06-29 01:01:00,69.0,63.0,29.46,ENE,71,0.0,-999.0,81,-99.99,,,-99.99,,2013-06-29 06:01:00,
2013-06-29 01:12:00,69.0,63.0,29.46,ENE,71,0.0,-999.0,82,-99.99,,,-99.99,,2013-06-29 06:12:00,
2013-06-29 01:22:00,68.0,63.0,29.46,ENE,64,0.0,-999.0,83,-99.99,,,-99.99,,2013-06-29 06:22:00,
2013-06-29 01:33:00,68.0,63.0,29.45,ENE,64,0.0,-999.0,85,-99.99,,,-99.99,,2013-06-29 06:33:00,
2013-06-29 01:43:00,67.0,62.0,29.45,ENE,64,0.0,-999.0,85,-99.99,,,-99.99,,2013-06-29 06:43:00,
2013-06-29 01:53:00,67.0,63.0,29.45,ENE,64,0.0,-999.0,87,-99.99,,,-99.99,,2013-06-29 06:53:00,
2013-06-29 02:02:00,67.0,63.0,29.45,ESE,102,0.0,-999.0,86,-99.99,,,-99.99,,2013-06-29 07:02:00,
2013-06-29 02:12:00,67.0,63.0,29.45,ESE,102,0.0,-999.0,87,-99.99,,,-99.99,,2013-06-29 07:12:00,
2013-06-29 02:22:00,66.0,62.0,29.44,ESE,102,0.0,-999.0,88,-99.99,,,-99.99,,2013-06-29 07:22:00,
2013-06-29 02:33:00,66.0,62.0,29.44,ESE,102,0.0,-999.0,88,-99.99,,,-99.99,,2013-06-29 07:33:00,
2013-06-29 02:43:00,66.0,62.0,29.44,ESE,102,0.0,-999.0,88,-99.99,,,-99.99,,2013-06-29 07:43:00,
2013-06-29 02:53:00,65.0,62.0,29.44,ESE,102,0.0,-999.0,89,-99.99,,,-99.99,,2013-06-29 07:53:00,
2013-06-29 03:01:00,65.0,62.0,29.44,ESE,102,0.0,-999.0,90,-99.99,,,-99.99,,2013-06-29 08:01:00,
2013-06-29 03:12:00,65.0,62.0,29.44,ESE,102,0.0,-999.0,91,-99.99,,,-99.99,,2013-06-29 08:12:00,
2013-06-29 03:22:00,64.0,61.0,29.44,ESE,102,0.0,-999.0,91,-99.99,,,-99.99,,2013-06-29 08:22:00,
2013-06-29 03:33:00,64.0,62.0,29.44,ESE,102,0.0,-999.0,92,-99.99,,,-99.99,,2013-06-29 08:33:00,
2013-06-29 03:43:00,64.0,62.0,29.44,ESE,102,0.0,-999.0,92,-99.99,,,-99.99,,2013-06-29 08:43:00,
2013-06-29 03:52:00,64.0,62.0,29.44,ESE,102,0.0,-999.0,92,-99.99,,,-99.99,,2013-06-29 08:52:00,
2013-06-29 04:02:00,63.0,61.0,29.44,ESE,102,0.0,-999.0,92,-99.99,,,-99.99,,2013-06-29 09:02:00,
2013-06-29 04:12:00,63.0,61.0,29.44,ESE,102,0.0,-999.0,93,-99.99,,,-99.99,,2013-06-29 09:12:00,
2013-06-29 04:33:00,63.0,61.0,29.45,ESE,102,0.0,-999.0,93,-99.99,,,-99.99,,2013-06-29 09:33:00,
2013-06-29 04:42:00,63.0,61.0,29.46,ESE,102,0.0,-999.0,93,-99.99,,,-99.99,,2013-06-29 09:42:00,
2013-06-29 04:53:00,63.0,61.0,29.46,ESE,102,0.0,-999.0,94,-99.99,,,-99.99,,2013-06-29 09:53:00,
2013-06-29 05:01:00,63.0,61.0,29.45,ESE,102,0.0,-999.0,94,-99.99,,,-99.99,,2013-06-29 10:01:00,
2013-06-29 05:11:00,64.0,62.0,29.45,East,79,0.0,-999.0,93,-99.99,,,-99.99,,2013-06-29 10:11:00,
2013-06-29 05:22:00,64.0,62.0,29.45,East,80,0.0,-999.0,93,-99.99,,,-99.99,,2013-06-29 10:22:00,
2013-06-29 05:33:00,64.0,62.0,29.45,East,80,0.0,-999.0,93,-99.99,,,-99.99,,2013-06-29 10:33:00,
2013-06-29 05:43:00,64.0,62.0,29.45,ESE,105,0.0,-999.0,93,-99.99,,,-99.99,,2013-06-29 10:43:00,
2013-06-29 05:52:00,64.0,62.0,29.45,ESE,105,0.0,-999.0,93,-99.99,,,-99.99,,2013-06-29 10:52:00,
2013-06-29 06:02:00,64.0,62.0,29.45,SSW,206,0.0,-999.0,93,-99.99,,,-99.99,,2013-06-29 11:02:00,
2013-06-29 06:11:00,64.0,62.0,29.45,SSW,206,0.0,-999.0,93,-99.99,,,-99.99,,2013-06-29 11:11:00,
2013-06-29 06:23:00,64.0,62.0,29.45,WSW,242,0.0,-999.0,94,-99.99,,,-99.99,,2013-06-29 11:23:00,
2013-06-29 06:33:00,64.0,62.0,29.46,ESE,102,0.0,-999.0,94,-99.99,,,-99.99,,2013-06-29 11:33:00,
2013-06-29 06:43:00,64.0,62.0,29.46,East,80,0.0,-999.0,94,-99.99,,,-99.99,,2013-06-29 11:43:00,
2013-06-29 06:53:00,65.0,63.0,29.46,East,84,0.0,-999.0,93,-99.99,,,-99.99,,2013-06-29 11:53:00,
2013-06-29 07:02:00,65.0,63.0,29.45,SW,227,0.0,-999.0,93,-99.99,,,-99.99,,2013-06-29 12:02:00,
2013-06-29 07:12:00,65.0,63.0,29.45,ENE,74,0.0,-999.0,92,-99.99,,,-99.99,,2013-06-29 12:12:00,
2013-06-29 07:22:00,66.0,64.0,29.45,ENE,61,0.0,-999.0,92,-99.99,,,-99.99,,2013-06-29 12:22:00,
2013-06-29 07:34:00,66.0,63.0,29.45,ENE,78,0.0,-999.0,91,-99.99,,,-99.99,,2013-06-29 12:34:00,
2013-06-29 07:43:00,66.0,63.0,29.45,SW,234,0.0,-999.0,91,-99.99,,,-99.99,,2013-06-29 12:43:00,
2013-06-29 07:53:00,66.0,63.0,29.45,SW,226,0.0,-999.0,90,-99.99,,,-99.99,,2013-06-29 12:53:00,
2013-06-29 08:02:00,67.0,64.0,29.46,ENE,63,0.0,-999.0,90,-99.99,,,-99.99,,2013-06-29 13:02:00,
2013-06-29 08:11:00,67.0,64.0,29.46,ENE,78,1.0,-999.0,90,-99.99,,,-99.99,,2013-06-29 13:11:00,
2013-06-29 08:23:00,67.0,64.0,29.46,ENE,76,1.0,-999.0,89,-99.99,,,-99.99,,2013-06-29 13:23:00,
2013-06-29 08:34:00,67.0,64.0,29.46,ENE,61,1.0,-999.0,90,-99.99,,,-99.99,,2013-06-29 13:34:00,
2013-06-29 08:43:00,67.0,64.0,29.46,ESE,119,0.0,-999.0,90,-99.99,,,-99.99,,2013-06-29 13:43:00,
2013-06-29 09:02:00,67.0,64.0,29.46,ENE,71,1.0,-999.0,89,-99.99,,,-99.99,,2013-06-29 14:02:00,
2013-06-29 09:12:00,67.0,64.0,29.46,ENE,67,1.0,-999.0,90,-99.99,,,-99.99,,2013-06-29 14:12:00,
2013-06-29 09:23:00,67.0,64.0,29.46,ENE,67,1.0,-999.0,89,-99.99,,,-99.99,,2013-06-29 14:23:00,
2013-06-29 09:34:00,67.0,64.0,29.46,ENE,69,1.0,-999.0,89,-99.99,,,-99.99,,2013-06-29 14:34:00,
2013-06-29 09:44:00,67.0,64.0,29.46,East,95,1.0,-999.0,89,-99.99,,,-99.99,,2013-06-29 14:44:00,
2013-06-29 09:53:00,68.0,64.0,29.45,ENE,76,1.0,-999.0,88,-99.99,,,-99.99,,2013-06-29 14:53:00,
2013-06-29 10:01:00,69.0,65.0,29.45,East,95,1.0,-999.0,88,-99.99,,,-99.99,,2013-06-29 15:01:00,
2013-06-29 10:11:00,69.0,65.0,29.45,NE,48,1.0,-999.0,86,-99.99,,,-99.99,,2013-06-29 15:11:00,
2013-06-29 10:22:00,69.0,64.0,29.45,NE,53,1.0,-999.0,85,-99.99,,,-99.99,,2013-06-29 15:22:00,
2013-06-29 10:33:00,70.0,65.0,29.45,NNE,20,2.0,-999.0,84,-99.99,,,-99.99,,2013-06-29 15:33:00,
2013-06-29 10:42:00,71.0,66.0,29.45,ESE,109,1.0,-999.0,83,-99.99,,,-99.99,,2013-06-29 15:42:00,
2013-06-29 10:53:00,72.0,66.0,29.44,ENE,71,1.0,-999.0,81,-99.99,,,-99.99,,2013-06-29 15:53:00,
2013-06-29 11:02:00,72.0,65.0,29.44,ENE,74,1.0,-999.0,78,-99.99,,,-99.99,,2013-06-29 16:02:00,
2013-06-29 11:12:00,71.0,65.0,29.44,NE,45,1.0,-999.0,80,-99.99,,,-99.99,,2013-06-29 16:12:00,
2013-06-29 11:22:00,72.0,65.0,29.44,ENE,78,1.0,-999.0,80,-99.99,,,-99.99,,2013-06-29 16:22:00,
2013-06-29 11:33:00,73.0,66.0,29.44,ENE,68,1.0,-999.0,79,-99.99,,,-99.99,,2013-06-29 16:33:00,
2013-06-29 11:43:00,72.0,65.0,29.44,NE,53,2.0,-999.0,79,-99.99,,,-99.99,,2013-06-29 16:43:00,
2013-06-29 11:53:00,73.0,65.0,29.44,North,355,1.0,-999.0,77,-99.99,,,-99.99,,2013-06-29 16:53:00,
2013-06-29 12:01:00,74.0,67.0,29.44,SE,134,0.0,-999.0,79,-99.99,,,-99.99,,2013-06-29 17:01:00,
2013-06-29 12:12:00,72.0,65.0,29.45,NE,46,3.0,-999.0,79,-99.99,,,-99.99,,2013-06-29 17:12:00,
2013-06-29 12:23:00,68.0,65.0,29.45,ENE,70,2.0,-999.0,89,-99.99,,,-99.99,,2013-06-29 17:23:00,
2013-06-29 12:34:00,67.0,65.0,29.45,ENE,64,0.0,-999.0,92,-99.99,,,-99.99,,2013-06-29 17:34:00,
2013-06-29 12:42:00,66.0,63.0,29.46,ENE,65,1.0,-999.0,91,-99.99,,,-99.99,,2013-06-29 17:42:00,
2013-06-29 13:01:00,64.0,62.0,29.46,East,92,0.0,-999.0,93,-99.99,,,-99.99,,2013-06-29 18:01:00,
2013-06-29 13:12:00,64.0,62.0,29.46,ENE,61,0.0,-999.0,94,-99.99,,,-99.99,,2013-06-29 18:12:00,
2013-06-29 13:22:00,64.0,62.0,29.47,ENE,61,0.0,-999.0,94,-99.99,,,-99.99,,2013-06-29 18:22:00,
2013-06-29 13:34:00,64.0,63.0,29.47,ENE,61,0.0,-999.0,95,-99.99,,,-99.99,,2013-06-29 18:34:00,
2013-06-29 13:43:00,64.0,63.0,29.47,ENE,77,0.0,-999.0,95,-99.99,,,-99.99,,2013-06-29 18:43:00,
2013-06-29 14:01:00,64.0,63.0,29.46,East,83,1.0,-999.0,95,-99.99,,,-99.99,,2013-06-29 19:01:00,
2013-06-29 14:12:00,65.0,64.0,29.47,ENE,74,1.0,-999.0,95,-99.99,,,-99.99,,2013-06-29 19:12:00,
2013-06-29 14:34:00,67.0,65.0,29.47,ENE,78,1.0,-999.0,94,-99.99,,,-99.99,,2013-06-29 19:34:00,
2013-06-29 14:43:00,68.0,65.0,29.47,ENE,76,1.0,-999.0,90,-99.99,,,-99.99,,2013-06-29 19:43:00,
2013-06-29 14:54:00,68.0,65.0,29.48,East,83,1.0,-999.0,89,-99.99,,,-99.99,,2013-06-29 19:54:00,
2013-06-29 15:02:00,68.0,65.0,29.48,East,87,1.0,-999.0,89,-99.99,,,-99.99,,2013-06-29 20:02:00,
2013-06-29 15:11:00,69.0,65.0,29.47,ENE,67,1.0,-999.0,88,-99.99,,,-99.99,,2013-06-29 20:11:00,
2013-06-29 15:33:00,70.0,66.0,29.47,NNW,330,1.0,-999.0,88,-99.99,,,-99.99,,2013-06-29 20:33:00,
2013-06-29 15:43:00,69.0,65.0,29.47,East,80,1.0,-999.0,88,-99.99,,,-99.99,,2013-06-29 20:43:00,
2013-06-29 15:52:00,69.0,65.0,29.47,NNE,28,2.0,-999.0,87,-99.99,,,-99.99,,2013-06-29 20:52:00,
2013-06-29 16:02:00,69.0,66.0,29.48,East,91,2.0,-999.0,89,-99.99,,,-99.99,,2013-06-29 21:02:00,
2013-06-29 16:11:00,68.0,63.0,29.48,NW,304,2.0,-999.0,83,-99.99,,,-99.99,,2013-06-29 21:11:00,
2013-06-29 16:22:00,68.0,64.0,29.48,West,260,1.0,-999.0,86,-99.99,,,-99.99,,2013-06-29 21:22:00,
2013-06-29 16:32:00,68.0,64.0,29.48,NNE,24,0.0,-999.0,88,-99.99,,,-99.99,,2013-06-29 21:32:00,
2013-06-29 16:42:00,67.0,64.0,29.48,WNW,285,0.0,-999.0,90,-99.99,,,-99.99,,2013-06-29 21:42:00,
2013-06-29 16:52:00,67.0,64.0,29.47,ENE,69,0.0,-999.0,91,-99.99,,,-99.99,,2013-06-29 21:52:00,
2013-06-29 17:01:00,66.0,63.0,29.47,ENE,78,1.0,-999.0,91,-99.99,,,-99.99,,2013-06-29 22:01:00,
2013-06-29 17:11:00,66.0,64.0,29.47,ENE,76,1.0,-999.0,93,-99.99,,,-99.99,,2013-06-29 22:11:00,
2013-06-29 17:21:00,67.0,65.0,29.47,East,84,1.0,-999.0,92,-99.99,,,-99.99,,2013-06-29 22:21:00,
2013-06-29 17:33:00,66.0,63.0,29.47,East,79,1.0,-999.0,90,-99.99,,,-99.99,,2013-06-29 22:33:00,
2013-06-29 17:43:00,66.0,63.0,29.47,East,83,1.0,-999.0,90,-99.99,,,-99.99,,2013-06-29 22:43:00,
2013-06-29 17:53:00,67.0,64.0,29.48,ENE,60,1.0,-999.0,89,-99.99,,,-99.99,,2013-06-29 22:53:00,
2013-06-29 18:02:00,67.0,64.0,29.48,NE,48,1.0,-999.0,89,-99.99,,,-99.99,,2013-06-29 23:02:00,
2013-06-29 18:12:00,67.0,64.0,29.48,East,88,1.0,-999.0,89,-99.99,,,-99.99,,2013-06-29 23:12:00,
2013-06-29 18:23:00,67.0,64.0,29.49,ENE,68,1.0,-999.0,89,-99.99,,,-99.99,,2013-06-29 23:23:00,
2013-06-29 18:34:00,67.0,64.0,29.49,East,84,0.0,-999.0,91,-99.99,,,-99.99,,2013-06-29 23:34:00,
2013-06-29 18:43:00,67.0,64.0,29.49,East,99,0.0,-999.0,90,-99.99,,,-99.99,,2013-06-29 23:43:00,
2013-06-29 18:52:00,68.0,65.0,29.49,ENE,76,0.0,-999.0,90,-99.99,,,-99.99,,2013-06-29 23:52:00,
2013-06-29 19:02:00,68.0,65.0,29.50,NE,51,1.0,-999.0,89,-99.99,,,-99.99,,2013-06-30 00:02:00,
2013-06-29 19:12:00,67.0,64.0,29.51,NE,51,1.0,-999.0,89,-99.99,,,-99.99,,2013-06-30 00:12:00,
2013-06-29 19:22:00,67.0,64.0,29.51,NE,41,1.0,-999.0,89,-99.99,,,-99.99,,2013-06-30 00:22:00,
2013-06-29 19:33:00,67.0,64.0,29.51,East,80,0.0,-999.0,89,-99.99,,,-99.99,,2013-06-30 00:33:00,
2013-06-29 19:43:00,67.0,64.0,29.51,ENE,75,0.0,-999.0,89,-99.99,,,-99.99,,2013-06-30 00:43:00,
2013-06-29 20:01:00,67.0,64.0,29.52,ENE,64,1.0,-999.0,89,-99.99,,,-99.99,,2013-06-30 01:01:00,
2013-06-29 20:11:00,67.0,64.0,29.52,NNW,335,1.0,-999.0,89,-99.99,,,-99.99,,2013-06-30 01:11:00,
2013-06-29 20:33:00,66.0,63.0,29.53,ENE,74,1.0,-999.0,90,-99.99,,,-99.99,,2013-06-30 01:33:00,
2013-06-29 20:44:00,66.0,63.0,29.53,NE,48,0.0,-999.0,90,-99.99,,,-99.99,,2013-06-30 01:44:00,
2013-06-29 21:02:00,66.0,63.0,29.54,East,80,0.0,-999.0,91,-99.99,,,-99.99,,2013-06-30 02:02:00,
2013-06-29 21:11:00,66.0,63.0,29.54,ENE,74,0.0,-999.0,91,-99.99,,,-99.99,,2013-06-30 02:11:00,
2013-06-29 21:23:00,66.0,64.0,29.54,NNE,15,0.0,-999.0,92,-99.99,,,-99.99,,2013-06-30 02:23:00,
2013-06-29 21:33:00,66.0,64.0,29.55,NNE,33,0.0,-999.0,92,-99.99,,,-99.99,,2013-06-30 02:33:00,
2013-06-29 21:43:00,66.0,63.0,29.55,NNE,33,0.0,-999.0,91,-99.99,,,-99.99,,2013-06-30 02:43:00,
2013-06-29 21:53:00,66.0,63.0,29.56,East,84,1.0,-999.0,90,-99.99,,,-99.99,,2013-06-30 02:53:00,
2013-06-29 22:01:00,66.0,62.0,29.56,ENE,74,0.0,-999.0,88,-99.99,,,-99.99,,2013-06-30 03:01:00,
2013-06-29 22:12:00,66.0,62.0,29.56,ENE,63,1.0,-999.0,87,-99.99,,,-99.99,,2013-06-30 03:12:00,
2013-06-29 22:33:00,65.0,60.0,29.57,ENE,71,0.0,-999.0,85,-99.99,,,-99.99,,2013-06-30 03:33:00,
2013-06-29 22:43:00,65.0,60.0,29.57,ENE,65,0.0,-999.0,84,-99.99,,,-99.99,,2013-06-30 03:43:00,
2013-06-29 22:53:00,65.0,60.0,29.57,WSW,250,0.0,-999.0,83,-99.99,,,-99.99,,2013-06-30 03:53:00,
2013-06-29 23:01:00,65.0,59.0,29.57,NE,46,0.0,-999.0,82,-99.99,,,-99.99,,2013-06-30 04:01:00,
2013-06-29 23:12:00,64.0,59.0,29.57,North,355,0.0,-999.0,83,-99.99,,,-99.99,,2013-06-30 04:12:00,
2013-06-29 23:33:00,64.0,59.0,29.57,NNE,32,0.0,-999.0,84,-99.99,,,-99.99,,2013-06-30 04:33:00,
2013-06-29 23:43:00,63.0,58.0,29.57,NNE,32,0.0,-999.0,85,-99.99,,,-99.99,,2013-06-30 04:43:00,
2013-06-29 23:53:00,63.0,59.0,29.57,ENE,72,0.0,-999.0,86,-99.99,,,-99.99,,2013-06-30 04:53:00,